Sie sind vermutlich noch nicht im Forum angemeldet - Klicken Sie hier um sich kostenlos anzumelden  
NOHAB-GM
Zurück zur Rundnasen-Homepage
Sie können sich hier anmelden
Dieses Board hat 618 Mitglieder
10.475 Beiträge & 3.920 Themen
Beiträge der letzten Tage
  Beiträge der letzten Tage  
   Betreff Absender Antworten Zugriffe Letzter Beitrag
After a Pittsburgh punt Gelöschtes Mitglied 0 61 15.01.2019 02:58
TOKYO -- Japan is scaling down the planned main stadium for the 2020 Tokyo Olympics, following an uproar from some prominent arc Gelöschtes Mitglied 0 46 15.01.2019 02:58
CINCINNATI - Justin Upton hit a two-run homer in the 12th inning Friday night, rallying the Atlanta Braves to a 3-1 victory over Gelöschtes Mitglied 0 30 15.01.2019 02:58
He let fans know what happened during the John Tortorella dressing room invasion. [url=http://www.airjordan3nz.com/]Cheap Air Jo Gelöschtes Mitglied 0 28 15.01.2019 02:58
CLEVELAND -- Andrew Wiggins has an NBA home. [url=http://www.airjordan3canada.com/]Cheap Air Jordan 3 Canada[/url] . Maybe a tem Gelöschtes Mitglied 0 36 15.01.2019 02:58
MONTREAL -- Lewis Hamilton and Nico Rosberg still have the fastest car on the track, but the competition may not be quite so far Gelöschtes Mitglied 0 38 15.01.2019 02:58
ATLANTA -- The Cincinnati Reds placed catcher Devin Mesoraco on the 15-day disabled list Saturday with a strained left hamstring Gelöschtes Mitglied 0 28 15.01.2019 02:58
COLUMBUS, Ohio -- In a game in which both teams badly needed a win to stay in the playoff picture, Jason Spezza did what captain Gelöschtes Mitglied 0 32 15.01.2019 02:57
GRAND RAPIDS, Mich. [url=http://www.airjordan5uk.com/]Air Jordan 5 Cheap[/url] . -- Dustin Tokarski stopped 27 shots as the Hami Gelöschtes Mitglied 0 27 15.01.2019 02:57
SAN ANTONIO -- Long after the fog cleared at TPC San Antonio, Phil Mickelson remained shrouded in an increasingly alarming funk Gelöschtes Mitglied 0 34 15.01.2019 02:57
Then, just minutes later the Leafs appear to tie the game at 2-2. [url=http://www.airmax270cheapuk.com/]Air Max 270 Cheap Wholes Gelöschtes Mitglied 0 26 15.01.2019 02:57
Lake Buena Vista, FL (SportsNetwork. [url=http://www.cheapairmax1ireland.com/]Air Max 1 Clearance[/url] .com) - Oregons Marcus M Gelöschtes Mitglied 0 26 15.01.2019 02:57
Fans in Winnipeg will have to wait at least two more years for an outdoor game. [url=http://www.cheapairjordan13uk.com/]Air Jord Gelöschtes Mitglied 0 30 15.01.2019 02:57
almost as if they were w Gelöschtes Mitglied 0 32 15.01.2019 02:57
Taylor told The Associated Gelöschtes Mitglied 0 34 15.01.2019 02:01
Ungarn 1991 NOHAB-Pappi 0 58 13.01.2019 06:39
Neues NOHAB Video im Handel NOHAB-Pappi 0 150 12.01.2019 05:18
Ungarn aktuell NOHAB-Pappi 0 59 10.01.2019 17:02
My1138+My1151 TMX_104 0 71 07.01.2019 19:52
[DK] MX 1018 til arkivet NOHAB-Pappi 0 67 04.01.2019 14:45
Fast wie neu: NOHAB My 1155 NOHAB-Fan Magdeburg 0 77 02.01.2019 19:38
1148 , 1147 und mehr in Padborg (Link zu DSO) vectrabaerchen 0 61 02.01.2019 14:44
628, 2251 NOHAB-Pappi 0 74 30.12.2018 09:47
[DK] I dag for 40 år siden NOHAB-Pappi 0 70 29.12.2018 07:22
NOHAB-GM hirlevel / Newsletter Nr. 114 [1 Attachment] NOHAB-Pappi 0 159 24.12.2018 14:18
Rundnasen am Balaton Teil 5 2000, das letzte Jahr (14 B.) Hans-Jürgen Warg 0 308 19.12.2018 11:07
Nohab fahren in Bernburg geht zuende MY 1127 2 236 16.12.2018 13:11
Fra Røros 8.12 NOHAB-Pappi 0 87 09.12.2018 09:24
Fahrpult für NOHAB's NOHAB-Pappi 2 138 04.12.2018 10:20
DI 3 642 i farta igjen NOHAB-Pappi 0 84 03.12.2018 09:21
Gibt es diesen Winter wieder Personenzüge mit Rundnasen in Schweden? nohbi 1 170 02.12.2018 19:08
[DK] DSB ME 1520 NOHAB-Pappi 0 64 02.12.2018 08:57
Rundnasen am Balaton Teil 4 1999 (13 B.) Hans-Jürgen Warg 0 220 02.12.2018 08:56
1155 MY 1127 1 153 28.11.2018 20:28
M17 in wording scale O, with DCC sound. NOHAB-Pappi 5 188 26.11.2018 12:09
[DK] MV 1102 med godstog i Esbjerg NOHAB-Pappi 2 99 23.11.2018 17:30
Rundnasen am Balaton Teil 3 1997/1998 (21 B.) Hans-Jürgen Warg 1 172 20.11.2018 08:17
Noch ein letztes mal 1149 auf der Marschbahn ölfuss 4 183 19.11.2018 15:28
NATO transport till Trident Juncture 18 NOHAB-Pappi 0 66 19.11.2018 07:54
Altmark Rail My 1155 Heute Mittag auf KBS 375 NOHAB-Fan Magdeburg 0 62 15.11.2018 21:41
Di 3 642 på tur igjen NOHAB-Pappi 0 57 15.11.2018 07:01
Die NoHAB My 1138 in Hannover Hbf (2 B.) NOHAB-Fan Magdeburg 0 49 11.11.2018 21:52
MY 1149 at Klanxbüll SimonTogDK 2 61 11.11.2018 10:24
MY 1149 at Klanxbüll (Video) SimonTogDK 0 42 11.11.2018 10:23
Rundnasenfahrt am 29. Dezember 2018 in Ungarn storniert roundnose 0 122 11.11.2018 08:48
Lidt fra Lersøen 1991 NOHAB-Pappi 0 56 09.11.2018 06:18
eine NOHAB im Leinetal NOHAB-Fan Magdeburg 0 58 08.11.2018 15:14
CLR MY 1138 Holz-Kutscher 0 58 07.11.2018 12:29
MY 1149 auf der Marschbahn ölfuss 1 172 06.11.2018 11:09
Rundnasen am Balaton Teil 2 1995/1996 (20 B.) Hans-Jürgen Warg 0 257 04.11.2018 08:33
Altmark Rail MY 1149 NOHAB-Fan Magdeburg 0 65 03.11.2018 22:57
[HR] Kroatiens Eisenbahn wird bunt... 3 Bilder NOHAB-Pappi 0 72 03.11.2018 08:00
MY 1158 with crane SimonTogDK 0 66 02.11.2018 18:33
Rundnasen am Balaton Teil 1 1990 - 1994 (20 B.) Hans-Jürgen Warg 3 267 28.10.2018 13:43
Gm power på Fryksdalsbanan NOHAB-Pappi 0 76 24.10.2018 20:18
Ældre billeder fra Nykøbing Sjælland på OHJ NOHAB-Pappi 0 83 22.10.2018 19:32
My1149 und 1155 MY 1127 0 155 17.10.2018 21:11
Gera / EBS NOHAB-Pappi 0 110 11.10.2018 07:54
MY 1135 in Taulov SimonTogDK 1 114 10.10.2018 08:42
Tschüss 1149 ölfuss 1 580 07.10.2018 11:10
Strabag-Nohab und Kran NOHAB-Fan Magdeburg 0 84 04.10.2018 15:35
Made MY Day - noch etwas 1149 in Husum ölfuss 1 273 03.10.2018 20:50
Was kommt denn da durchs Gebüsch? 1149 in Husum ölfuss 1 1.710 29.09.2018 22:20
Modell der 5216 Firma RIMA NOHAB-Pappi 3 13.975 26.09.2018 11:07
MY 1158 - Skanderborg und Ry SimonTogDK 0 82 24.09.2018 18:48
CFL Cargo på Thybanen! NOHAB-Pappi 0 93 19.09.2018 06:12
MY 1158 between Skanderborg and Ry SimonTogDK 0 88 13.09.2018 22:50
MZ 1459 with cargo from Aalborg SimonTogDK 0 73 11.09.2018 17:48
Fahrt nach Tapolca und zurück mit CLR 1138 und M61 017 NOHAB-Pappi 0 89 11.09.2018 08:07
150 Jahre MÁV Fahrt nach Szentendre NOHAB-Pappi 0 72 10.09.2018 08:35
[SE] NOHAB (NoHAB) PRODUKTKATALOG 1944 (PDF) NOHAB-Pappi 1 1.429 05.09.2018 07:10
Sonderzug Potsdam MY 1127 5 24.488 04.09.2018 21:28
MY 1126 Jutland trip - 19/08/2018 - Video SimonTogDK 0 58 03.09.2018 18:34
Mz IV von McK TMX_104 0 118 01.09.2018 14:39
MY 1126 Jutland trip - 19/08/2018 SimonTogDK 0 83 28.08.2018 21:34
 Sprung Seite 1  2  3  4  5 - 49  weiter »
NOHAB-GM
Xobor Forum Software von Xobor
Einfach ein eigenes Forum erstellen